BAW290 KIAD-EGLL

Flight info

Callsign BAW290
Flight time 6h 37m
Altitude 39000
Route JCOBY4 SWANN DCT BROSS Q419 RBV Q22 FOXWD DCT MIILS N691A NEEKO/M084F400 DCT 54N050W 55N040W 56N030W 56N020W DCT RESNO DCT NETKI/N0489F410 DCT REVNU DCT BOFUM Q37 MALUD Q38 NUGRA
Aircraft B772/H-SDE2E3FGHIJ5LORVWXY/LB1D1

Departure

Time 2026-05-07 11:47
Airport Washington Dulles International Airport (KIAD)

Arrival

Time 2026-05-07 18:25
Airport London Heathrow Airport (EGLL)
Time Latitude Longitude Altitude Speed Heading
2026-05-07 11:26 38.94946 -77.45328 303 ft 0 kts 175°
2026-05-07 11:39 38.94955 -77.45329 303 ft 4 kts 175°
2026-05-07 11:39 38.94981 -77.45330 303 ft 4 kts 189°
2026-05-07 11:39 38.95006 -77.45320 302 ft 4 kts 214°
2026-05-07 11:40 38.95023 -77.45297 303 ft 4 kts 257°
2026-05-07 11:40 38.95025 -77.45281 301 ft 1 kts 270°
2026-05-07 11:40 38.95025 -77.45280 301 ft 1 kts 270°
2026-05-07 11:42 38.95025 -77.45298 304 ft 7 kts 271°
2026-05-07 11:42 38.95026 -77.45377 301 ft 9 kts 271°
2026-05-07 11:43 38.95028 -77.45464 299 ft 10 kts 270°
2026-05-07 11:43 38.95027 -77.45553 298 ft 10 kts 270°
2026-05-07 11:43 38.95026 -77.45643 297 ft 10 kts 265°
2026-05-07 11:43 38.94983 -77.45707 302 ft 10 kts 197°
2026-05-07 11:44 38.94913 -77.45716 302 ft 10 kts 182°
2026-05-07 11:44 38.94826 -77.45717 302 ft 17 kts 180°
2026-05-07 11:44 38.94693 -77.45719 302 ft 20 kts 180°
2026-05-07 11:44 38.94555 -77.45721 307 ft 20 kts 181°
2026-05-07 11:45 38.94417 -77.45723 307 ft 20 kts 181°
2026-05-07 11:45 38.94280 -77.45726 310 ft 20 kts 180°
2026-05-07 11:45 38.94151 -77.45727 313 ft 16 kts 180°
2026-05-07 11:45 38.94050 -77.45732 311 ft 13 kts 191°
2026-05-07 11:46 38.94006 -77.45823 308 ft 13 kts 268°
2026-05-07 11:46 38.94019 -77.45936 310 ft 13 kts 305°
2026-05-07 11:46 38.94192 -77.45973 309 ft 57 kts
2026-05-07 11:46 38.94846 -77.45961 300 ft 129 kts
2026-05-07 11:47 38.95929 -77.45944 370 ft 181 kts
2026-05-07 11:47 38.97316 -77.45888 679 ft 211 kts
2026-05-07 11:47 38.98798 -77.45819 1587 ft 214 kts
2026-05-07 11:47 39.00274 -77.45777 2462 ft 211 kts 359°
2026-05-07 11:48 39.01747 -77.45692 3032 ft 221 kts 12°
2026-05-07 11:48 39.03092 -77.44568 3396 ft 242 kts 40°
2026-05-07 11:48 39.04317 -77.42987 3843 ft 255 kts 38°
2026-05-07 11:48 39.05659 -77.41430 4456 ft 265 kts 36°
2026-05-07 11:49 39.07082 -77.39860 5049 ft 274 kts 35°
2026-05-07 11:49 39.08569 -77.38269 5657 ft 282 kts 35°
2026-05-07 11:49 39.10121 -77.36645 6237 ft 291 kts 36°
2026-05-07 11:49 39.11721 -77.34987 6782 ft 300 kts 35°
2026-05-07 11:50 39.13359 -77.33292 7376 ft 304 kts 34°
2026-05-07 11:50 39.14836 -77.31322 7780 ft 316 kts 58°
2026-05-07 11:50 39.15477 -77.28600 8236 ft 324 kts 91°
2026-05-07 11:50 39.15147 -77.25754 8744 ft 320 kts 109°
2026-05-07 11:51 39.14619 -77.22953 9189 ft 329 kts 108°
2026-05-07 11:51 39.14113 -77.20064 9797 ft 332 kts 107°
2026-05-07 11:51 39.13644 -77.17122 10257 ft 341 kts 102°
2026-05-07 11:51 39.13481 -77.13968 10384 ft 364 kts 93°
2026-05-07 11:52 39.13532 -77.10622 10542 ft 385 kts 90°
2026-05-07 11:52 39.13654 -77.07106 10939 ft 398 kts 89°
2026-05-07 11:52 39.13784 -77.03494 11506 ft 408 kts 89°
2026-05-07 11:52 39.13900 -76.99807 12242 ft 414 kts 90°
2026-05-07 11:53 39.13998 -76.96081 13065 ft 420 kts 90°
2026-05-07 11:53 39.14081 -76.92337 13821 ft 427 kts 90°
2026-05-07 11:53 39.14155 -76.88481 14485 ft 434 kts 91°
2026-05-07 11:53 39.14223 -76.84554 15182 ft 441 kts 91°
2026-05-07 11:54 39.14289 -76.80575 15849 ft 448 kts 91°
2026-05-07 11:54 39.14353 -76.76526 16544 ft 454 kts 92°
2026-05-07 11:54 39.14418 -76.72435 17207 ft 460 kts 92°
2026-05-07 11:54 39.14482 -76.68288 17862 ft 466 kts 93°
2026-05-07 11:55 39.14545 -76.64091 18477 ft 472 kts 93°
2026-05-07 11:55 39.14608 -76.59838 19022 ft 478 kts 93°
2026-05-07 11:55 39.14670 -76.55523 19524 ft 485 kts 93°
2026-05-07 11:55 39.14732 -76.51144 20016 ft 491 kts 93°
2026-05-07 11:56 39.14794 -76.46713 20540 ft 497 kts 93°
2026-05-07 11:56 39.14855 -76.42244 21075 ft 502 kts 93°
2026-05-07 11:56 39.14915 -76.37780 21608 ft 506 kts 93°
2026-05-07 11:56 39.14974 -76.33225 22104 ft 511 kts 93°
2026-05-07 11:57 39.15031 -76.28619 22611 ft 517 kts 93°
2026-05-07 11:57 39.15102 -76.23973 23111 ft 523 kts 91°
2026-05-07 11:57 39.15410 -76.19259 23584 ft 531 kts 84°
2026-05-07 11:57 39.15976 -76.14544 23990 ft 536 kts 83°
2026-05-07 11:58 39.16581 -76.09788 24449 ft 538 kts 83°
2026-05-07 11:58 39.17170 -76.05014 24942 ft 540 kts 84°
2026-05-07 11:58 39.17731 -76.00216 25333 ft 545 kts 84°
2026-05-07 11:58 39.18313 -75.95365 25695 ft 550 kts 80°
2026-05-07 11:59 39.19459 -75.90610 25878 ft 559 kts 63°
2026-05-07 11:59 39.21384 -75.86252 26248 ft 558 kts 50°
2026-05-07 11:59 39.23844 -75.82520 26735 ft 548 kts 35°
2026-05-07 11:59 39.26734 -75.79398 27093 ft 542 kts 30°
2026-05-07 12:00 39.29696 -75.76343 27370 ft 549 kts 30°
2026-05-07 12:00 39.32676 -75.73205 27796 ft 553 kts 31°
2026-05-07 12:00 39.35634 -75.70006 28274 ft 557 kts 31°
2026-05-07 12:00 39.38596 -75.66741 28759 ft 561 kts 31°
2026-05-07 12:01 39.41573 -75.63446 29128 ft 566 kts 31°
2026-05-07 12:01 39.44577 -75.60130 29504 ft 570 kts 31°
2026-05-07 12:01 39.47609 -75.56796 29898 ft 574 kts 31°
2026-05-07 12:01 39.50628 -75.53482 30252 ft 577 kts 31°
2026-05-07 12:02 39.53695 -75.50111 30597 ft 580 kts 31°
2026-05-07 12:02 39.56776 -75.46714 30987 ft 583 kts 31°
2026-05-07 12:02 39.59906 -75.43259 31299 ft 586 kts 31°
2026-05-07 12:02 39.62987 -75.39855 31630 ft 587 kts 31°
2026-05-07 12:03 39.66103 -75.36411 31999 ft 589 kts 30°
2026-05-07 12:03 39.69230 -75.32952 32315 ft 591 kts 30°
2026-05-07 12:03 39.72361 -75.29486 32636 ft 593 kts 30°
2026-05-07 12:03 39.75507 -75.25997 32934 ft 595 kts 30°
2026-05-07 12:04 39.78633 -75.22449 33286 ft 599 kts 33°
2026-05-07 12:04 39.81601 -75.18576 33670 ft 608 kts 39°
2026-05-07 12:04 39.84378 -75.14412 34073 ft 610 kts 41°
2026-05-07 12:04 39.87077 -75.10238 34412 ft 609 kts 41°
2026-05-07 12:05 39.89810 -75.06028 34762 ft 607 kts 41°
2026-05-07 12:05 39.92544 -75.01894 35365 ft 598 kts 40°
2026-05-07 12:05 39.95266 -74.97823 35887 ft 595 kts 39°
2026-05-07 12:05 39.97902 -74.93638 36161 ft 602 kts 45°
2026-05-07 12:06 39.99518 -74.90658 36329 ft 607 kts 48°
2026-05-07 12:06 40.01855 -74.86044 36584 ft 610 kts 50°
2026-05-07 12:06 40.04147 -74.81391 36863 ft 610 kts 50°
2026-05-07 12:06 40.06438 -74.76742 37209 ft 608 kts 49°
2026-05-07 12:07 40.08744 -74.72124 37563 ft 605 kts 49°
2026-05-07 12:07 40.11062 -74.67545 37947 ft 604 kts 48°
2026-05-07 12:07 40.13392 -74.62972 38199 ft 604 kts 48°
2026-05-07 12:07 40.15717 -74.58396 38438 ft 604 kts 48°
2026-05-07 12:08 40.18124 -74.53926 38691 ft 597 kts 42°
2026-05-07 12:08 40.20764 -74.49780 38874 ft 590 kts 37°
2026-05-07 12:08 40.23582 -74.45911 38910 ft 585 kts 32°
2026-05-07 12:09 40.29718 -74.39134 38998 ft 573 kts 26°
2026-05-07 12:09 40.35928 -74.32659 38932 ft 567 kts 26°
2026-05-07 12:10 40.42053 -74.26152 38935 ft 565 kts 26°
2026-05-07 12:10 40.48091 -74.19659 38991 ft 563 kts 26°
2026-05-07 12:11 40.54163 -74.13121 38960 ft 565 kts 26°
2026-05-07 12:11 40.60251 -74.06561 38946 ft 567 kts 26°
2026-05-07 12:12 40.66359 -73.99966 38986 ft 569 kts 26°
2026-05-07 12:12 40.72500 -73.93315 38956 ft 572 kts 27°
2026-05-07 12:13 40.78649 -73.86633 38926 ft 573 kts 27°
2026-05-07 12:13 40.84727 -73.79736 38966 ft 584 kts 33°
2026-05-07 12:14 40.90137 -73.71493 38915 ft 603 kts 46°
2026-05-07 12:14 40.94904 -73.62321 38911 ft 605 kts 47°
2026-05-07 12:15 40.99624 -73.53133 38916 ft 603 kts 47°
2026-05-07 12:15 41.04371 -73.44065 38919 ft 602 kts 47°
2026-05-07 12:16 41.09160 -73.34973 38907 ft 601 kts 47°
2026-05-07 12:16 41.13932 -73.25876 38903 ft 599 kts 47°
2026-05-07 12:17 41.18670 -73.16799 38947 ft 598 kts 47°
2026-05-07 12:17 41.23410 -73.07687 38898 ft 598 kts 47°
2026-05-07 12:18 41.28110 -72.98629 38889 ft 598 kts 48°
2026-05-07 12:18 41.32569 -72.89234 38954 ft 601 kts 52°
2026-05-07 12:19 41.36822 -72.79625 38902 ft 603 kts 53°
2026-05-07 12:19 41.41064 -72.70004 38894 ft 602 kts 53°
2026-05-07 12:20 41.45336 -72.60401 38900 ft 601 kts 52°
2026-05-07 12:20 41.49577 -72.50886 38883 ft 600 kts 52°
2026-05-07 12:21 41.53832 -72.41301 38896 ft 600 kts 52°
2026-05-07 12:21 41.58075 -72.31702 38886 ft 600 kts 52°
2026-05-07 12:22 41.62314 -72.22076 38870 ft 600 kts 52°
2026-05-07 12:22 41.66551 -72.12427 38897 ft 601 kts 52°
2026-05-07 12:23 41.70775 -72.02774 38895 ft 601 kts 53°
2026-05-07 12:23 41.74970 -71.93159 38884 ft 601 kts 53°
2026-05-07 12:24 41.79516 -71.83897 38900 ft 586 kts 40°
2026-05-07 12:24 41.82269 -71.79913 38882 ft 575 kts 33°
2026-05-07 12:24 41.85217 -71.76359 38887 ft 565 kts 27°
2026-05-07 12:24 41.88356 -71.73323 38879 ft 548 kts 18°
2026-05-07 12:25 41.91584 -71.70629 38883 ft 546 kts 18°
2026-05-07 12:25 41.98067 -71.65278 38919 ft 547 kts 18°
2026-05-07 12:26 42.04512 -71.59882 38882 ft 550 kts 19°
2026-05-07 12:26 42.10993 -71.54359 38849 ft 551 kts 19°
2026-05-07 12:27 42.17459 -71.48811 38874 ft 552 kts 19°
2026-05-07 12:27 42.23941 -71.43238 38864 ft 552 kts 20°
2026-05-07 12:28 42.30428 -71.37654 38916 ft 552 kts 20°
2026-05-07 12:28 42.36886 -71.32089 38855 ft 554 kts 20°
2026-05-07 12:29 42.43393 -71.26463 38852 ft 555 kts 20°
2026-05-07 12:29 42.49912 -71.20811 38888 ft 556 kts 21°
2026-05-07 12:30 42.56445 -71.15134 38873 ft 557 kts 21°
2026-05-07 12:30 42.62931 -71.09482 38874 ft 557 kts 21°
2026-05-07 12:31 42.69460 -71.03781 38866 ft 558 kts 22°
2026-05-07 12:31 42.75987 -70.98065 38870 ft 558 kts 22°
2026-05-07 12:32 42.82509 -70.92339 38907 ft 558 kts 24°
2026-05-07 12:32 42.89033 -70.86598 38823 ft 558 kts 23°
2026-05-07 12:33 42.98785 -70.77986 38877 ft 556 kts 24°
2026-05-07 12:33 43.05247 -70.72264 38837 ft 556 kts 24°
2026-05-07 12:34 43.11737 -70.66500 38832 ft 555 kts 24°
2026-05-07 12:34 43.18211 -70.60737 38830 ft 555 kts 24°
2026-05-07 12:35 43.24678 -70.54965 38836 ft 554 kts 24°
2026-05-07 12:35 43.31128 -70.49193 38863 ft 553 kts 24°
2026-05-07 12:36 43.37580 -70.43406 38847 ft 553 kts 24°
2026-05-07 12:36 43.43985 -70.37646 38836 ft 554 kts 24°
2026-05-07 12:37 43.50435 -70.31831 38849 ft 554 kts 25°
2026-05-07 12:37 43.56893 -70.25992 38828 ft 554 kts 25°
2026-05-07 12:38 43.63336 -70.20150 38834 ft 554 kts 25°
2026-05-07 12:38 43.69795 -70.14280 38840 ft 554 kts 26°
2026-05-07 12:39 43.76231 -70.08415 38832 ft 554 kts 26°
2026-05-07 12:39 43.82661 -70.02540 38844 ft 553 kts 26°
2026-05-07 12:40 43.89045 -69.96692 38828 ft 553 kts 26°
2026-05-07 12:40 43.95447 -69.90812 38831 ft 552 kts 26°
2026-05-07 12:41 44.01855 -69.84913 38834 ft 552 kts 27°
2026-05-07 12:41 44.08250 -69.79009 38829 ft 551 kts 27°
2026-05-07 12:42 44.14632 -69.73101 38835 ft 551 kts 27°
2026-05-07 12:42 44.21016 -69.67176 38818 ft 550 kts 27°
2026-05-07 12:43 44.27350 -69.61283 38810 ft 550 kts 27°
2026-05-07 12:43 44.33713 -69.55346 38824 ft 550 kts 28°
2026-05-07 12:44 44.40073 -69.49395 38802 ft 550 kts 28°
2026-05-07 12:44 44.46427 -69.43435 38788 ft 549 kts 28°
2026-05-07 12:45 44.52772 -69.37468 38792 ft 549 kts 28°
2026-05-07 12:45 44.59107 -69.31494 38790 ft 548 kts 28°
2026-05-07 12:46 44.65395 -69.25548 38801 ft 548 kts 28°
2026-05-07 12:46 44.71716 -69.19555 38792 ft 547 kts 29°
2026-05-07 12:47 44.78022 -69.13561 38791 ft 547 kts 29°
2026-05-07 12:47 44.84321 -69.07557 38788 ft 546 kts 29°
2026-05-07 12:48 44.90618 -69.01539 38792 ft 546 kts 29°
2026-05-07 12:48 44.96858 -68.95560 38789 ft 546 kts 29°
2026-05-07 12:49 45.03139 -68.89525 38792 ft 546 kts 29°
2026-05-07 12:49 45.09413 -68.83480 38782 ft 546 kts 29°
2026-05-07 12:50 45.15691 -68.77415 38755 ft 546 kts 29°
2026-05-07 12:50 45.21960 -68.71342 38787 ft 546 kts 30°
2026-05-07 12:51 45.28237 -68.65244 38780 ft 546 kts 30°
2026-05-07 12:51 45.34463 -68.59180 38804 ft 546 kts 30°
2026-05-07 12:52 45.40731 -68.53059 38786 ft 546 kts 30°
2026-05-07 12:52 45.46988 -68.46931 38782 ft 545 kts 30°
2026-05-07 12:53 45.53247 -68.40784 38795 ft 545 kts 30°
2026-05-07 12:53 45.59487 -68.34640 38780 ft 545 kts 30°
2026-05-07 12:54 45.64673 -68.29520 38783 ft 545 kts 30°
2026-05-07 12:54 45.71833 -68.22433 38787 ft 544 kts 31°
2026-05-07 12:55 45.77045 -68.17259 38774 ft 544 kts 31°
2026-05-07 12:55 45.83213 -68.11120 38767 ft 543 kts 31°
2026-05-07 12:56 45.89420 -68.04927 38774 ft 543 kts 31°
2026-05-07 12:56 45.95626 -67.98717 38739 ft 543 kts 31°
2026-05-07 12:57 46.01818 -67.92503 38726 ft 542 kts 31°
2026-05-07 12:57 46.07948 -67.86334 38729 ft 540 kts 31°
2026-05-07 12:58 46.14114 -67.80113 38730 ft 540 kts 31°
2026-05-07 12:58 46.20261 -67.73893 38731 ft 539 kts 31°
2026-05-07 12:59 46.26399 -67.67666 38742 ft 539 kts 32°
2026-05-07 12:59 46.32547 -67.61410 38737 ft 540 kts 32°
2026-05-07 13:00 46.38661 -67.55171 38735 ft 540 kts 32°
2026-05-07 13:00 46.44804 -67.48886 38724 ft 541 kts 32°
2026-05-07 13:01 46.50946 -67.42583 38721 ft 541 kts 32°
2026-05-07 13:01 46.57094 -67.36256 38737 ft 541 kts 32°
2026-05-07 13:02 46.63230 -67.29924 38719 ft 541 kts 32°
2026-05-07 13:02 46.69323 -67.23618 38716 ft 541 kts 33°
2026-05-07 13:03 46.75457 -67.17251 38729 ft 541 kts 33°
2026-05-07 13:03 46.81583 -67.10875 38721 ft 541 kts 33°
2026-05-07 13:04 46.87564 -67.04190 38720 ft 543 kts 40°
2026-05-07 13:04 46.92791 -66.96168 38721 ft 544 kts 48°
2026-05-07 13:05 46.97696 -66.87837 38717 ft 543 kts 49°
2026-05-07 13:05 47.02638 -66.79453 38711 ft 542 kts 48°
2026-05-07 13:06 47.07596 -66.71114 38699 ft 542 kts 48°
2026-05-07 13:06 47.12567 -66.62776 38691 ft 542 kts 48°
2026-05-07 13:07 47.17523 -66.54438 38692 ft 542 kts 48°
2026-05-07 13:07 47.22472 -66.46076 38685 ft 542 kts 49°
2026-05-07 13:08 47.27415 -66.37696 38694 ft 541 kts 49°
2026-05-07 13:08 47.32316 -66.29361 38678 ft 541 kts 49°
2026-05-07 13:09 47.37239 -66.20961 38669 ft 541 kts 49°
2026-05-07 13:09 47.42159 -66.12543 38671 ft 541 kts 49°
2026-05-07 13:10 47.47073 -66.04108 38669 ft 541 kts 49°
2026-05-07 13:10 47.51964 -65.95685 38659 ft 541 kts 49°
2026-05-07 13:11 47.56859 -65.87231 38649 ft 540 kts 49°
2026-05-07 13:11 47.61734 -65.78784 38667 ft 539 kts 49°
2026-05-07 13:12 47.66563 -65.70389 38665 ft 538 kts 50°
2026-05-07 13:12 47.71390 -65.61974 38644 ft 538 kts 50°
2026-05-07 13:13 47.76230 -65.53507 38664 ft 538 kts 50°
2026-05-07 13:13 47.81070 -65.45015 38645 ft 538 kts 50°
2026-05-07 13:14 47.85909 -65.36497 38628 ft 538 kts 50°
2026-05-07 13:14 47.90745 -65.27959 38616 ft 539 kts 50°
2026-05-07 13:15 47.95568 -65.19415 38610 ft 539 kts 50°
2026-05-07 13:15 48.00367 -65.10887 38626 ft 539 kts 50°
2026-05-07 13:16 48.05190 -65.02288 38614 ft 540 kts 50°
2026-05-07 13:16 48.10010 -64.93669 38587 ft 539 kts 50°
2026-05-07 13:17 48.14818 -64.85042 38599 ft 539 kts 51°
2026-05-07 13:17 48.19614 -64.76410 38614 ft 539 kts 51°
2026-05-07 13:18 48.24375 -64.67812 38606 ft 539 kts 51°
2026-05-07 13:18 48.29164 -64.59137 38579 ft 539 kts 51°
2026-05-07 13:19 48.33943 -64.50452 38599 ft 539 kts 51°
2026-05-07 13:19 48.38715 -64.41751 38582 ft 539 kts 51°
2026-05-07 13:20 48.43480 -64.33034 38591 ft 539 kts 51°
2026-05-07 13:20 48.48244 -64.24291 38592 ft 539 kts 51°
2026-05-07 13:21 48.52962 -64.15604 38590 ft 539 kts 51°
2026-05-07 13:21 48.57708 -64.06836 38613 ft 538 kts 51°
2026-05-07 13:22 48.62441 -63.98065 38618 ft 538 kts 51°
2026-05-07 13:22 48.67159 -63.89291 38612 ft 537 kts 51°
2026-05-07 13:23 48.71848 -63.80544 38607 ft 537 kts 51°
2026-05-07 13:23 48.76548 -63.71747 38622 ft 537 kts 52°
2026-05-07 13:24 48.81248 -63.62921 38615 ft 537 kts 52°
2026-05-07 13:24 48.85939 -63.54082 38616 ft 537 kts 52°
2026-05-07 13:25 48.90596 -63.45279 38608 ft 537 kts 52°
2026-05-07 13:25 48.95275 -63.36406 38601 ft 537 kts 52°
2026-05-07 13:26 48.99945 -63.27518 38601 ft 537 kts 52°
2026-05-07 13:26 49.04605 -63.18621 38597 ft 537 kts 52°
2026-05-07 13:27 49.09264 -63.09695 38607 ft 537 kts 52°
2026-05-07 13:27 49.13909 -63.00768 38593 ft 537 kts 53°
2026-05-07 13:28 49.18544 -62.91828 38597 ft 536 kts 53°
2026-05-07 13:28 49.23169 -62.82879 38593 ft 536 kts 53°
2026-05-07 13:29 49.27752 -62.73980 38590 ft 536 kts 53°
2026-05-07 13:29 49.32362 -62.64998 38602 ft 536 kts 53°
2026-05-07 13:30 49.36966 -62.55998 38597 ft 536 kts 53°
2026-05-07 13:30 49.41555 -62.46998 38594 ft 536 kts 53°
2026-05-07 13:31 49.46143 -62.37968 38591 ft 536 kts 53°
2026-05-07 13:31 49.50726 -62.28917 38582 ft 536 kts 53°
2026-05-07 13:32 49.55269 -62.19916 38590 ft 536 kts 53°
2026-05-07 13:32 49.59837 -62.10833 38600 ft 536 kts 54°
2026-05-07 13:33 49.64297 -62.01936 38591 ft 535 kts 54°
2026-05-07 13:33 49.68842 -61.92837 38582 ft 534 kts 54°
2026-05-07 13:34 49.75628 -61.79194 38603 ft 533 kts 54°
2026-05-07 13:35 49.80136 -61.70093 38600 ft 532 kts 54°
2026-05-07 13:35 49.84609 -61.61028 38603 ft 532 kts 54°
2026-05-07 13:36 49.89101 -61.51895 38629 ft 532 kts 54°
2026-05-07 13:36 49.93589 -61.42739 38626 ft 533 kts 54°
2026-05-07 13:37 49.98051 -61.33606 38625 ft 534 kts 54°
2026-05-07 13:37 50.02537 -61.24389 38635 ft 535 kts 55°
2026-05-07 13:38 50.07022 -61.15143 38646 ft 535 kts 55°
2026-05-07 13:38 50.11511 -61.05857 38643 ft 536 kts 55°
2026-05-07 13:39 50.15987 -60.96564 38650 ft 535 kts 55°
2026-05-07 13:39 50.20447 -60.87271 38667 ft 534 kts 55°
2026-05-07 13:40 50.24865 -60.78036 38659 ft 534 kts 56°
2026-05-07 13:40 50.29303 -60.68725 38681 ft 533 kts 56°
2026-05-07 13:41 50.33720 -60.59424 38685 ft 532 kts 56°
2026-05-07 13:41 50.38127 -60.50111 38690 ft 531 kts 56°
2026-05-07 13:42 50.42521 -60.40794 38719 ft 531 kts 56°
2026-05-07 13:42 50.46875 -60.31528 38734 ft 530 kts 56°
2026-05-07 13:43 50.51243 -60.22199 38731 ft 530 kts 56°
2026-05-07 13:43 50.55602 -60.12856 38742 ft 530 kts 56°
2026-05-07 13:44 50.59956 -60.03491 38753 ft 530 kts 56°
2026-05-07 13:44 50.64282 -59.94153 38770 ft 530 kts 56°
2026-05-07 13:45 50.68615 -59.84765 38776 ft 530 kts 57°
2026-05-07 13:45 50.72951 -59.75337 38782 ft 530 kts 57°
2026-05-07 13:46 50.77276 -59.65901 38788 ft 530 kts 57°
2026-05-07 13:46 50.80866 -59.58042 38794 ft 530 kts 57°
2026-05-07 13:47 50.85180 -59.48565 38762 ft 531 kts 57°
2026-05-07 13:47 50.89486 -59.39074 38802 ft 530 kts 57°
2026-05-07 13:48 50.93782 -59.29570 38812 ft 530 kts 57°
2026-05-07 13:48 50.98040 -59.20115 38809 ft 529 kts 58°
2026-05-07 13:49 51.02307 -59.10605 38811 ft 528 kts 58°
2026-05-07 13:49 51.06560 -59.01091 38814 ft 527 kts 58°
2026-05-07 13:50 51.10798 -58.91575 38819 ft 527 kts 58°
2026-05-07 13:50 51.15037 -58.82024 38838 ft 528 kts 58°
2026-05-07 13:51 51.19241 -58.72515 38832 ft 528 kts 58°
2026-05-07 13:51 51.23473 -58.62910 38823 ft 529 kts 58°
2026-05-07 13:52 51.27703 -58.53272 38833 ft 529 kts 58°
2026-05-07 13:52 51.31926 -58.43614 38858 ft 532 kts 58°
2026-05-07 13:53 51.36147 -58.33925 38836 ft 533 kts 58°
2026-05-07 13:53 51.40374 -58.24188 38807 ft 531 kts 58°
2026-05-07 13:54 51.44577 -58.14470 38842 ft 530 kts 58°
2026-05-07 13:54 51.48765 -58.04749 38842 ft 529 kts 58°
2026-05-07 13:55 51.52946 -57.95006 38854 ft 529 kts 58°
2026-05-07 13:55 51.57114 -57.85257 38857 ft 528 kts 58°
2026-05-07 13:56 51.61243 -57.75565 38857 ft 529 kts 58°
2026-05-07 13:56 51.65388 -57.65795 38858 ft 529 kts 59°
2026-05-07 13:57 51.69535 -57.55985 38853 ft 529 kts 59°
2026-05-07 13:57 51.73677 -57.46150 38871 ft 529 kts 59°
2026-05-07 13:58 51.77810 -57.36300 38875 ft 530 kts 59°
2026-05-07 13:58 51.81935 -57.26430 38882 ft 530 kts 59°
2026-05-07 13:59 51.86056 -57.16532 38876 ft 530 kts 59°
2026-05-07 13:59 51.90163 -57.06629 38888 ft 530 kts 59°
2026-05-07 14:00 51.94256 -56.96720 38870 ft 529 kts 59°
2026-05-07 14:00 51.98317 -56.86852 38894 ft 529 kts 59°
2026-05-07 14:01 52.02395 -56.76907 38900 ft 529 kts 59°
2026-05-07 14:01 52.06464 -56.66943 38903 ft 529 kts 59°
2026-05-07 14:02 52.10527 -56.56954 38904 ft 529 kts 59°
2026-05-07 14:02 52.14582 -56.46947 38898 ft 529 kts 59°
2026-05-07 14:03 52.18631 -56.36914 38907 ft 529 kts 59°
2026-05-07 14:03 52.22669 -56.26870 38905 ft 529 kts 59°
2026-05-07 14:04 52.26692 -56.16825 38914 ft 528 kts 59°
2026-05-07 14:04 52.30683 -56.06818 38912 ft 528 kts 59°
2026-05-07 14:05 52.34682 -55.96751 38914 ft 527 kts 60°
2026-05-07 14:05 52.38678 -55.86659 38919 ft 527 kts 60°
2026-05-07 14:06 52.42295 -55.76273 38920 ft 524 kts 66°
2026-05-07 14:06 52.45525 -55.65654 38893 ft 523 kts 68°
2026-05-07 14:07 52.48744 -55.54968 38911 ft 523 kts 68°
2026-05-07 14:07 52.51973 -55.44327 38922 ft 524 kts 68°
2026-05-07 14:08 52.55237 -55.33596 38923 ft 525 kts 68°
2026-05-07 14:08 52.58498 -55.22841 38927 ft 526 kts 68°
2026-05-07 14:09 52.61751 -55.12060 38927 ft 527 kts 68°
2026-05-07 14:09 52.65001 -55.01230 38936 ft 527 kts 68°
2026-05-07 14:10 52.68221 -54.90452 38940 ft 528 kts 68°
2026-05-07 14:10 52.71461 -54.79557 38942 ft 528 kts 68°
2026-05-07 14:11 52.74690 -54.68651 38942 ft 528 kts 68°
2026-05-07 14:11 52.77891 -54.57792 38930 ft 528 kts 68°
2026-05-07 14:12 52.81092 -54.46881 38957 ft 528 kts 68°
2026-05-07 14:12 52.84285 -54.35945 38963 ft 528 kts 68°
2026-05-07 14:13 52.87472 -54.24980 38965 ft 528 kts 68°
2026-05-07 14:13 52.90650 -54.13992 38969 ft 528 kts 68°
2026-05-07 14:14 52.93814 -54.03006 38973 ft 528 kts 68°
2026-05-07 14:14 52.96948 -53.92072 38981 ft 528 kts 68°
2026-05-07 14:15 53.00096 -53.81039 38977 ft 528 kts 68°
2026-05-07 14:15 53.03230 -53.70001 38992 ft 528 kts 69°
2026-05-07 14:16 53.06357 -53.58936 38998 ft 528 kts 69°
2026-05-07 14:16 53.09471 -53.47864 38972 ft 528 kts 69°
2026-05-07 14:17 53.12554 -53.36854 38993 ft 527 kts 69°
2026-05-07 14:17 53.15643 -53.25767 39007 ft 528 kts 69°
2026-05-07 14:18 53.18729 -53.14637 39004 ft 528 kts 69°
2026-05-07 14:18 53.21803 -53.03495 39007 ft 528 kts 69°
2026-05-07 14:19 53.24868 -52.92335 39011 ft 528 kts 69°
2026-05-07 14:19 53.27902 -52.81235 39019 ft 529 kts 69°
2026-05-07 14:20 53.30948 -52.70035 39015 ft 529 kts 69°
2026-05-07 14:20 53.33980 -52.58833 39025 ft 529 kts 69°
2026-05-07 14:21 53.37004 -52.47608 39024 ft 529 kts 69°
2026-05-07 14:21 53.40023 -52.36345 39000 ft 529 kts 69°
2026-05-07 14:22 53.43020 -52.25107 39021 ft 528 kts 69°
2026-05-07 14:22 53.45991 -52.13914 39033 ft 528 kts 69°
2026-05-07 14:23 53.48975 -52.02612 39039 ft 529 kts 69°
2026-05-07 14:23 53.51952 -51.91283 39044 ft 529 kts 69°
2026-05-07 14:24 53.54914 -51.79956 39045 ft 529 kts 69°
2026-05-07 14:24 53.57846 -51.68684 39046 ft 529 kts 69°
2026-05-07 14:25 53.60789 -51.57317 39046 ft 529 kts 69°
2026-05-07 14:25 53.63720 -51.45935 39053 ft 529 kts 69°
2026-05-07 14:26 53.66639 -51.34543 39059 ft 529 kts 69°
2026-05-07 14:26 53.69546 -51.23138 39016 ft 529 kts 69°
2026-05-07 14:27 53.72442 -51.11719 39045 ft 528 kts 69°
2026-05-07 14:27 53.75321 -51.00313 39063 ft 528 kts 69°
2026-05-07 14:28 53.78192 -50.88874 39064 ft 529 kts 69°
2026-05-07 14:28 53.81053 -50.77417 39066 ft 529 kts 69°
2026-05-07 14:29 53.83837 -50.66212 39068 ft 529 kts 69°
2026-05-07 14:29 53.86681 -50.54709 39063 ft 529 kts 69°
2026-05-07 14:30 53.89510 -50.43202 39074 ft 529 kts 69°
2026-05-07 14:30 53.92330 -50.31674 39073 ft 528 kts 69°
2026-05-07 14:31 53.95137 -50.20135 39074 ft 528 kts 69°
2026-05-07 14:31 53.97915 -50.08665 39073 ft 528 kts 69°
2026-05-07 14:32 54.00513 -49.97010 39069 ft 525 kts 76°
2026-05-07 14:32 54.02268 -49.84989 39086 ft 523 kts 79°
2026-05-07 14:33 54.03912 -49.72951 39083 ft 522 kts 79°
2026-05-07 14:33 54.05576 -49.60912 39080 ft 522 kts 78°
2026-05-07 14:34 54.07246 -49.48976 39082 ft 521 kts 78°
2026-05-07 14:34 54.08925 -49.36957 39079 ft 521 kts 78°
2026-05-07 14:35 54.10589 -49.24944 39084 ft 521 kts 79°
2026-05-07 14:35 54.11963 -49.14937 39086 ft 520 kts 79°
2026-05-07 14:36 54.13867 -49.00942 39087 ft 521 kts 78°
2026-05-07 14:36 54.15228 -48.90859 39094 ft 521 kts 79°
2026-05-07 14:37 54.16841 -48.78813 39099 ft 521 kts 79°
2026-05-07 14:37 54.19231 -48.60792 39095 ft 521 kts 79°
2026-05-07 14:38 54.20816 -48.48715 39100 ft 521 kts 79°
2026-05-07 14:38 54.22389 -48.36625 39103 ft 521 kts 79°
2026-05-07 14:39 54.23952 -48.24515 39101 ft 521 kts 79°
2026-05-07 14:39 54.25500 -48.12410 39096 ft 520 kts 79°
2026-05-07 14:40 54.27034 -48.00314 39097 ft 520 kts 79°
2026-05-07 14:40 54.28546 -47.88296 39109 ft 519 kts 79°
2026-05-07 14:41 54.30055 -47.76186 39113 ft 519 kts 79°
2026-05-07 14:41 54.31548 -47.64105 39114 ft 519 kts 79°
2026-05-07 14:42 54.33031 -47.51996 39115 ft 519 kts 79°
2026-05-07 14:42 54.34502 -47.39871 39120 ft 519 kts 80°
2026-05-07 14:43 54.35951 -47.27826 39120 ft 519 kts 80°
2026-05-07 14:43 54.37398 -47.15688 39123 ft 519 kts 79°
2026-05-07 14:44 54.38832 -47.03545 39127 ft 519 kts 79°
2026-05-07 14:44 54.40256 -46.91383 39131 ft 520 kts 79°
2026-05-07 14:45 54.41670 -46.79191 39129 ft 520 kts 79°
2026-05-07 14:45 54.43070 -46.67000 39136 ft 521 kts 80°
2026-05-07 14:46 54.44453 -46.54842 39141 ft 521 kts 79°
2026-05-07 14:46 54.45832 -46.42612 39141 ft 521 kts 79°
2026-05-07 14:47 54.47199 -46.30364 39132 ft 521 kts 80°
2026-05-07 14:47 54.48552 -46.18118 39141 ft 520 kts 79°
2026-05-07 14:48 54.49891 -46.05882 39142 ft 520 kts 79°
2026-05-07 14:48 54.51209 -45.93719 39149 ft 519 kts 79°
2026-05-07 14:49 54.52522 -45.81488 39156 ft 519 kts 79°
2026-05-07 14:49 54.53819 -45.69278 39157 ft 518 kts 79°
2026-05-07 14:50 54.55101 -45.57082 39157 ft 517 kts 79°
2026-05-07 14:50 54.56371 -45.44883 39160 ft 517 kts 80°
2026-05-07 14:51 54.57617 -45.32776 39164 ft 516 kts 79°
2026-05-07 14:51 54.58856 -45.20624 39165 ft 514 kts 79°
2026-05-07 14:52 54.60084 -45.08456 39167 ft 513 kts 79°
2026-05-07 14:52 54.61287 -44.96405 39170 ft 512 kts 79°
2026-05-07 14:53 54.62481 -44.84312 39167 ft 511 kts 79°
2026-05-07 14:53 54.63662 -44.72228 39188 ft 511 kts 79°
2026-05-07 14:54 54.64832 -44.60123 39175 ft 511 kts 79°
2026-05-07 14:54 54.65994 -44.47976 39189 ft 512 kts 79°
2026-05-07 14:55 54.67145 -44.35798 39182 ft 514 kts 79°
2026-05-07 14:55 54.68284 -44.23617 39191 ft 514 kts 79°
2026-05-07 14:56 54.69407 -44.11471 39208 ft 514 kts 79°
2026-05-07 14:56 54.70524 -43.99245 39192 ft 515 kts 79°
2026-05-07 14:57 54.71631 -43.86993 39197 ft 515 kts 79°
2026-05-07 14:57 54.72724 -43.74754 39193 ft 514 kts 79°
2026-05-07 14:58 54.73802 -43.62529 39199 ft 513 kts 79°
2026-05-07 14:58 54.74865 -43.50334 39225 ft 512 kts 80°
2026-05-07 14:59 54.75910 -43.38199 39210 ft 512 kts 79°
2026-05-07 14:59 54.76948 -43.26001 39214 ft 511 kts 79°
2026-05-07 15:00 54.77972 -43.13815 39216 ft 511 kts 79°
2026-05-07 15:00 54.78983 -43.01632 39221 ft 510 kts 79°
2026-05-07 15:01 54.79980 -42.89465 39223 ft 510 kts 79°
2026-05-07 15:01 54.80967 -42.77274 39240 ft 511 kts 79°
2026-05-07 15:02 54.81944 -42.65037 39235 ft 512 kts 79°
2026-05-07 15:02 54.82911 -42.52775 39235 ft 513 kts 79°
2026-05-07 15:03 54.83866 -42.40493 39238 ft 514 kts 79°
2026-05-07 15:03 54.84804 -42.28265 39246 ft 514 kts 79°
2026-05-07 15:04 54.85738 -42.15927 39245 ft 515 kts 79°
2026-05-07 15:04 54.86658 -42.03600 39250 ft 514 kts 80°
2026-05-07 15:05 54.87560 -41.91346 39254 ft 514 kts 80°
2026-05-07 15:05 54.88454 -41.79022 39256 ft 514 kts 80°
2026-05-07 15:06 54.89335 -41.66709 39256 ft 514 kts 80°
2026-05-07 15:06 54.90203 -41.54382 39273 ft 514 kts 80°
2026-05-07 15:07 54.91047 -41.42239 39269 ft 514 kts 80°
2026-05-07 15:07 54.91890 -41.29898 39266 ft 514 kts 80°
2026-05-07 15:08 54.92721 -41.17567 39269 ft 514 kts 80°
2026-05-07 15:08 54.93535 -41.05299 39276 ft 513 kts 80°
2026-05-07 15:09 54.94340 -40.92962 39302 ft 513 kts 79°
2026-05-07 15:09 54.95134 -40.80613 39304 ft 514 kts 80°
2026-05-07 15:10 54.95917 -40.68226 39281 ft 515 kts 80°
2026-05-07 15:10 54.96686 -40.55851 39282 ft 514 kts 80°
2026-05-07 15:11 54.97441 -40.43497 39300 ft 513 kts 80°
2026-05-07 15:11 54.98182 -40.31174 39317 ft 512 kts 79°
2026-05-07 15:12 54.98910 -40.18852 39300 ft 511 kts 79°
2026-05-07 15:12 54.99627 -40.06546 39300 ft 510 kts 79°
2026-05-07 15:13 55.00684 -39.94484 39304 ft 503 kts 71°
2026-05-07 15:13 55.02399 -39.82668 39311 ft 502 kts 70°
2026-05-07 15:14 55.04134 -39.70872 39329 ft 503 kts 70°
2026-05-07 15:14 55.05837 -39.58979 39317 ft 505 kts 70°
2026-05-07 15:15 55.07507 -39.47071 39327 ft 506 kts 70°
2026-05-07 15:15 55.09163 -39.35115 39309 ft 507 kts 71°
2026-05-07 15:16 55.10800 -39.23204 39318 ft 507 kts 71°
2026-05-07 15:16 55.12434 -39.11231 39354 ft 507 kts 70°
2026-05-07 15:17 55.14064 -38.99202 39328 ft 508 kts 71°
2026-05-07 15:17 55.15682 -38.87166 39320 ft 508 kts 71°
2026-05-07 15:18 55.17285 -38.75137 39323 ft 507 kts 71°
2026-05-07 15:18 55.18879 -38.63086 39521 ft 509 kts 71°
2026-05-07 15:19 55.19672 -38.57057 39783 ft 507 kts 71°
2026-05-07 15:19 55.20456 -38.51051 40096 ft 505 kts 71°
2026-05-07 15:19 55.21235 -38.45067 40379 ft 503 kts 71°
2026-05-07 15:19 55.22009 -38.39101 40624 ft 502 kts 71°
2026-05-07 15:20 55.22779 -38.33143 40830 ft 502 kts 72°
2026-05-07 15:20 55.23538 -38.27250 41015 ft 501 kts 72°
2026-05-07 15:20 55.24303 -38.21287 41228 ft 501 kts 72°
2026-05-07 15:20 55.25068 -38.15307 41272 ft 504 kts 72°
2026-05-07 15:21 55.26595 -38.03282 41325 ft 506 kts 72°
2026-05-07 15:21 55.28104 -37.91263 41332 ft 502 kts 72°
2026-05-07 15:22 55.29588 -37.79333 41329 ft 498 kts 72°
2026-05-07 15:22 55.31055 -37.67465 41330 ft 496 kts 72°
2026-05-07 15:23 55.32504 -37.55653 41349 ft 494 kts 72°
2026-05-07 15:23 55.33934 -37.43899 41340 ft 495 kts 72°
2026-05-07 15:24 55.35335 -37.32283 41351 ft 498 kts 72°
2026-05-07 15:24 55.36762 -37.20336 41354 ft 500 kts 72°
2026-05-07 15:25 55.37945 -37.10350 41353 ft 502 kts 72°
2026-05-07 15:25 55.39592 -36.96315 41349 ft 504 kts 72°
2026-05-07 15:26 55.40761 -36.86260 41343 ft 505 kts 72°
2026-05-07 15:26 55.42159 -36.74132 41354 ft 506 kts 72°
2026-05-07 15:27 55.43549 -36.61961 41347 ft 505 kts 72°
2026-05-07 15:27 55.44922 -36.49829 41353 ft 504 kts 72°
2026-05-07 15:28 55.46279 -36.37719 41347 ft 503 kts 72°
2026-05-07 15:28 55.47619 -36.25652 41345 ft 501 kts 73°
2026-05-07 15:29 55.48946 -36.13588 41348 ft 500 kts 73°
2026-05-07 15:29 55.50255 -36.01573 41347 ft 499 kts 73°
2026-05-07 15:30 55.51555 -35.89535 41345 ft 498 kts 73°
2026-05-07 15:30 55.52831 -35.77592 41350 ft 498 kts 73°
2026-05-07 15:31 55.54105 -35.65564 41393 ft 498 kts 73°
2026-05-07 15:31 55.55369 -35.53498 41347 ft 499 kts 73°
2026-05-07 15:32 55.56619 -35.41436 41352 ft 499 kts 73°
2026-05-07 15:32 55.57857 -35.29378 41352 ft 499 kts 73°
2026-05-07 15:33 55.59082 -35.17321 41354 ft 498 kts 73°
2026-05-07 15:33 55.60298 -35.05228 41392 ft 498 kts 74°
2026-05-07 15:34 55.61501 -34.93150 41359 ft 499 kts 74°
2026-05-07 15:34 55.62685 -34.81128 41352 ft 499 kts 74°
2026-05-07 15:35 55.63862 -34.69043 41349 ft 498 kts 74°
2026-05-07 15:35 55.65030 -34.56935 41352 ft 498 kts 74°
2026-05-07 15:36 55.66185 -34.44821 41385 ft 498 kts 75°
2026-05-07 15:36 55.67329 -34.32695 41359 ft 498 kts 75°
2026-05-07 15:37 55.68459 -34.20582 41354 ft 498 kts 75°
2026-05-07 15:37 55.69572 -34.08514 41356 ft 497 kts 75°
2026-05-07 15:38 55.70676 -33.96411 41351 ft 497 kts 75°
2026-05-07 15:38 55.71768 -33.84305 41390 ft 497 kts 75°
2026-05-07 15:39 55.72843 -33.72254 41362 ft 497 kts 76°
2026-05-07 15:39 55.73909 -33.60150 41351 ft 496 kts 76°
2026-05-07 15:40 55.74962 -33.48059 41352 ft 495 kts 76°
2026-05-07 15:40 55.76002 -33.35970 41350 ft 495 kts 76°
2026-05-07 15:41 55.77030 -33.23885 41367 ft 495 kts 76°
2026-05-07 15:41 55.78046 -33.11792 41352 ft 495 kts 76°
2026-05-07 15:42 55.79050 -32.99690 41351 ft 495 kts 76°
2026-05-07 15:42 55.80039 -32.87634 41337 ft 496 kts 76°
2026-05-07 15:43 55.81022 -32.75490 41348 ft 497 kts 76°
2026-05-07 15:43 55.81996 -32.63301 41360 ft 498 kts 76°
2026-05-07 15:44 55.82960 -32.51085 41351 ft 499 kts 76°
2026-05-07 15:44 55.83913 -32.38842 41350 ft 500 kts 77°
2026-05-07 15:45 55.84856 -32.26568 41351 ft 501 kts 77°
2026-05-07 15:45 55.85788 -32.14260 41346 ft 502 kts 77°
2026-05-07 15:46 55.87162 -31.95819 41350 ft 503 kts 77°
2026-05-07 15:47 55.88067 -31.83454 41348 ft 503 kts 77°
2026-05-07 15:47 55.88959 -31.71087 41334 ft 503 kts 77°
2026-05-07 15:48 55.89838 -31.58728 41332 ft 502 kts 77°
2026-05-07 15:48 55.90703 -31.46386 41371 ft 501 kts 77°
2026-05-07 15:49 55.91550 -31.34126 41338 ft 501 kts 77°
2026-05-07 15:49 55.92389 -31.21800 41332 ft 500 kts 78°
2026-05-07 15:50 55.93215 -31.09476 41330 ft 500 kts 78°
2026-05-07 15:50 55.94027 -30.97164 41330 ft 499 kts 78°
2026-05-07 15:51 55.94827 -30.84856 41366 ft 499 kts 78°
2026-05-07 15:51 55.95614 -30.72557 41339 ft 499 kts 78°
2026-05-07 15:52 55.96383 -30.60329 41319 ft 499 kts 78°
2026-05-07 15:52 55.97146 -30.48014 41328 ft 498 kts 78°
2026-05-07 15:53 55.97895 -30.35709 41323 ft 498 kts 78°
2026-05-07 15:53 55.98633 -30.23390 41317 ft 498 kts 78°
2026-05-07 15:54 55.99359 -30.11066 41323 ft 499 kts 79°
2026-05-07 15:54 56.00069 -29.98786 41319 ft 499 kts 79°
2026-05-07 15:55 56.00617 -29.86375 41312 ft 501 kts 81°
2026-05-07 15:55 56.01057 -29.74024 41313 ft 501 kts 81°
2026-05-07 15:56 56.01500 -29.61570 41342 ft 501 kts 81°
2026-05-07 15:56 56.01952 -29.49119 41312 ft 502 kts 81°
2026-05-07 15:57 56.02401 -29.36658 41307 ft 502 kts 81°
2026-05-07 15:57 56.02838 -29.24182 41307 ft 502 kts 82°
2026-05-07 15:58 56.03258 -29.11797 41304 ft 502 kts 82°
2026-05-07 15:58 56.03667 -28.99325 41336 ft 502 kts 82°
2026-05-07 15:59 56.04066 -28.86818 41303 ft 503 kts 82°
2026-05-07 15:59 56.04450 -28.74330 41295 ft 503 kts 82°
2026-05-07 16:00 56.04823 -28.61829 41295 ft 503 kts 82°
2026-05-07 16:00 56.05182 -28.49340 41296 ft 502 kts 82°
2026-05-07 16:01 56.05529 -28.36854 41319 ft 503 kts 83°
2026-05-07 16:01 56.05862 -28.24422 41289 ft 503 kts 83°
2026-05-07 16:02 56.06184 -28.11904 41288 ft 504 kts 83°
2026-05-07 16:02 56.06494 -27.99375 41287 ft 504 kts 83°
2026-05-07 16:03 56.06791 -27.86827 41281 ft 504 kts 83°
2026-05-07 16:03 56.07076 -27.74293 41312 ft 504 kts 83°
2026-05-07 16:04 56.07349 -27.61732 41278 ft 504 kts 84°
2026-05-07 16:04 56.07606 -27.49264 41274 ft 505 kts 84°
2026-05-07 16:05 56.07853 -27.36703 41267 ft 505 kts 84°
2026-05-07 16:05 56.08085 -27.24241 41264 ft 505 kts 84°
2026-05-07 16:06 56.08306 -27.11683 41293 ft 505 kts 84°
2026-05-07 16:06 56.08516 -26.99095 41268 ft 506 kts 84°
2026-05-07 16:07 56.08712 -26.86492 41255 ft 506 kts 84°
2026-05-07 16:07 56.08896 -26.73889 41250 ft 506 kts 85°
2026-05-07 16:08 56.09066 -26.61283 41251 ft 506 kts 85°
2026-05-07 16:08 56.09223 -26.48769 41279 ft 506 kts 85°
2026-05-07 16:09 56.09369 -26.36145 41250 ft 507 kts 85°
2026-05-07 16:09 56.09501 -26.23514 41244 ft 507 kts 85°
2026-05-07 16:10 56.09620 -26.10877 41239 ft 507 kts 85°
2026-05-07 16:10 56.09727 -25.98253 41240 ft 507 kts 85°
2026-05-07 16:11 56.09821 -25.85584 41258 ft 507 kts 86°
2026-05-07 16:11 56.09902 -25.73009 41238 ft 508 kts 86°
2026-05-07 16:12 56.09970 -25.60331 41222 ft 508 kts 86°
2026-05-07 16:12 56.10025 -25.47684 41223 ft 508 kts 86°
2026-05-07 16:13 56.10067 -25.35114 41220 ft 508 kts 86°
2026-05-07 16:13 56.10096 -25.22458 41243 ft 508 kts 87°
2026-05-07 16:14 56.10111 -25.11933 41225 ft 508 kts 87°
2026-05-07 16:14 56.10117 -24.99290 41214 ft 508 kts 87°
2026-05-07 16:15 56.10109 -24.86603 41217 ft 508 kts 87°
2026-05-07 16:15 56.10089 -24.73968 41216 ft 507 kts 87°
2026-05-07 16:16 56.10056 -24.61323 41225 ft 507 kts 88°
2026-05-07 16:16 56.10011 -24.48658 41208 ft 508 kts 88°
2026-05-07 16:17 56.09951 -24.36012 41199 ft 508 kts 88°
2026-05-07 16:17 56.09879 -24.23348 41199 ft 508 kts 88°
2026-05-07 16:18 56.09795 -24.10771 41188 ft 508 kts 88°
2026-05-07 16:18 56.09697 -23.98117 41192 ft 508 kts 88°
2026-05-07 16:19 56.09587 -23.85444 41185 ft 508 kts 88°
2026-05-07 16:19 56.09463 -23.72775 41185 ft 508 kts 88°
2026-05-07 16:20 56.09326 -23.60113 41184 ft 508 kts 89°
2026-05-07 16:20 56.09176 -23.47445 41183 ft 509 kts 89°
2026-05-07 16:21 56.09015 -23.34836 41200 ft 509 kts 89°
2026-05-07 16:21 56.08839 -23.22132 41181 ft 509 kts 89°
2026-05-07 16:22 56.08650 -23.09450 41171 ft 509 kts 89°
2026-05-07 16:22 56.08449 -22.96843 41169 ft 509 kts 89°
2026-05-07 16:23 56.08234 -22.84168 41163 ft 509 kts 90°
2026-05-07 16:23 56.08006 -22.71484 41171 ft 509 kts 90°
2026-05-07 16:24 56.07766 -22.58802 41159 ft 509 kts 90°
2026-05-07 16:24 56.07512 -22.46128 41157 ft 509 kts 90°
2026-05-07 16:25 56.07246 -22.33518 41153 ft 509 kts 90°
2026-05-07 16:25 56.06967 -22.20849 41153 ft 509 kts 90°
2026-05-07 16:26 56.06674 -22.08172 41159 ft 509 kts 91°
2026-05-07 16:26 56.06368 -21.95487 41145 ft 510 kts 91°
2026-05-07 16:27 56.06049 -21.82805 41138 ft 509 kts 91°
2026-05-07 16:27 56.05717 -21.70148 41137 ft 509 kts 91°
2026-05-07 16:28 56.05373 -21.57487 41133 ft 509 kts 91°
2026-05-07 16:28 56.05016 -21.44828 41148 ft 509 kts 92°
2026-05-07 16:29 56.04648 -21.32258 41119 ft 510 kts 92°
2026-05-07 16:29 56.04264 -21.19589 41123 ft 510 kts 92°
2026-05-07 16:30 56.03867 -21.06924 41117 ft 510 kts 92°
2026-05-07 16:30 56.03457 -20.94253 41120 ft 510 kts 92°
2026-05-07 16:31 56.03035 -20.81590 41121 ft 510 kts 92°
2026-05-07 16:31 56.02599 -20.68919 41113 ft 511 kts 92°
2026-05-07 16:32 56.02152 -20.56314 41106 ft 511 kts 93°
2026-05-07 16:32 56.01689 -20.43624 41103 ft 511 kts 93°
2026-05-07 16:33 56.01214 -20.30933 41094 ft 511 kts 93°
2026-05-07 16:33 56.00726 -20.18252 41102 ft 511 kts 93°
2026-05-07 16:34 56.00214 -20.05556 41084 ft 511 kts 95°
2026-05-07 16:34 55.98912 -19.93160 41092 ft 511 kts 107°
2026-05-07 16:35 55.96744 -19.81068 41082 ft 511 kts 108°
2026-05-07 16:35 55.94530 -19.68970 41083 ft 511 kts 108°
2026-05-07 16:36 55.92344 -19.56880 41080 ft 512 kts 108°
2026-05-07 16:36 55.90186 -19.44876 41074 ft 512 kts 108°
2026-05-07 16:37 55.88004 -19.32791 41079 ft 512 kts 108°
2026-05-07 16:37 55.85803 -19.20696 41052 ft 512 kts 108°
2026-05-07 16:38 55.83595 -19.08647 41063 ft 512 kts 109°
2026-05-07 16:38 55.81377 -18.96624 41062 ft 512 kts 109°
2026-05-07 16:39 55.79145 -18.84601 41067 ft 512 kts 109°
2026-05-07 16:39 55.76900 -18.72589 41054 ft 512 kts 109°
2026-05-07 16:40 55.74683 -18.60797 41050 ft 512 kts 109°
2026-05-07 16:40 55.72411 -18.48788 41051 ft 512 kts 109°
2026-05-07 16:41 55.70129 -18.36806 41033 ft 512 kts 109°
2026-05-07 16:41 55.67841 -18.24864 41046 ft 511 kts 109°
2026-05-07 16:42 55.65543 -18.12946 41035 ft 512 kts 110°
2026-05-07 16:42 55.63246 -18.01105 41039 ft 512 kts 110°
2026-05-07 16:43 55.60922 -17.89198 41025 ft 512 kts 110°
2026-05-07 16:43 55.58588 -17.77313 41028 ft 512 kts 110°
2026-05-07 16:44 55.56239 -17.65426 41005 ft 512 kts 110°
2026-05-07 16:44 55.53881 -17.53562 41015 ft 512 kts 110°
2026-05-07 16:45 55.51508 -17.41699 41024 ft 512 kts 110°
2026-05-07 16:45 55.49129 -17.29872 41007 ft 512 kts 111°
2026-05-07 16:46 55.46734 -17.18040 41017 ft 512 kts 111°
2026-05-07 16:46 55.44347 -17.06320 41010 ft 512 kts 111°
2026-05-07 16:47 55.41929 -16.94513 41019 ft 512 kts 111°
2026-05-07 16:47 55.39500 -16.82726 41000 ft 511 kts 111°
2026-05-07 16:48 55.37063 -16.70965 41010 ft 511 kts 111°
2026-05-07 16:48 55.34617 -16.59233 41004 ft 511 kts 111°
2026-05-07 16:49 55.32179 -16.47607 41003 ft 510 kts 111°
2026-05-07 16:49 55.29713 -16.35912 41003 ft 510 kts 111°
2026-05-07 16:50 55.27235 -16.24228 40993 ft 510 kts 111°
2026-05-07 16:50 55.24764 -16.12643 40999 ft 510 kts 112°
2026-05-07 16:51 55.22267 -16.01005 40983 ft 509 kts 112°
2026-05-07 16:51 55.19761 -15.89390 40990 ft 509 kts 112°
2026-05-07 16:52 55.17243 -15.77786 40976 ft 509 kts 112°
2026-05-07 16:52 55.14737 -15.66302 40980 ft 509 kts 112°
2026-05-07 16:53 55.12202 -15.54748 40980 ft 509 kts 112°
2026-05-07 16:53 55.09655 -15.43203 40973 ft 509 kts 112°
2026-05-07 16:54 55.07099 -15.31682 40970 ft 509 kts 113°
2026-05-07 16:54 55.04535 -15.20178 40967 ft 508 kts 113°
2026-05-07 16:55 55.01970 -15.08684 40962 ft 509 kts 111°
2026-05-07 16:55 55.00299 -14.96787 40972 ft 511 kts 99°
2026-05-07 16:56 54.99908 -14.84414 40970 ft 512 kts 90°
2026-05-07 16:56 55.00058 -14.65798 40958 ft 512 kts 90°
2026-05-07 16:57 55.00097 -14.53367 40950 ft 512 kts 91°
2026-05-07 16:57 55.00094 -14.41024 40950 ft 512 kts 91°
2026-05-07 16:58 55.00078 -14.28618 40942 ft 513 kts 91°
2026-05-07 16:58 55.00053 -14.16193 40938 ft 513 kts 91°
2026-05-07 16:59 54.99998 -14.03766 40936 ft 512 kts 94°
2026-05-07 16:59 54.99099 -13.91514 40937 ft 509 kts 104°
2026-05-07 17:00 54.97842 -13.81496 40928 ft 509 kts 104°
2026-05-07 17:00 54.96312 -13.69467 40935 ft 509 kts 104°
2026-05-07 17:01 54.94808 -13.57422 40929 ft 509 kts 104°
2026-05-07 17:01 54.93316 -13.45385 40931 ft 509 kts 104°
2026-05-07 17:02 54.91826 -13.33436 40927 ft 509 kts 104°
2026-05-07 17:02 54.90310 -13.21404 40927 ft 509 kts 104°
2026-05-07 17:03 54.88781 -13.09383 40918 ft 509 kts 104°
2026-05-07 17:03 54.87241 -12.97384 40922 ft 508 kts 104°
2026-05-07 17:04 54.85692 -12.85408 40923 ft 508 kts 104°
2026-05-07 17:04 54.84143 -12.73537 40911 ft 508 kts 105°
2026-05-07 17:05 54.82573 -12.61598 40913 ft 507 kts 105°
2026-05-07 17:05 54.80990 -12.49662 40918 ft 507 kts 105°
2026-05-07 17:06 54.79399 -12.37761 40914 ft 507 kts 105°
2026-05-07 17:06 54.77798 -12.25885 40913 ft 506 kts 105°
2026-05-07 17:07 54.76184 -12.14008 40911 ft 506 kts 105°
2026-05-07 17:07 54.74561 -12.02160 40917 ft 506 kts 105°
2026-05-07 17:08 54.72927 -11.90324 40912 ft 505 kts 105°
2026-05-07 17:08 54.71285 -11.78517 40916 ft 505 kts 106°
2026-05-07 17:09 54.69639 -11.66779 40896 ft 505 kts 106°
2026-05-07 17:09 54.67974 -11.54996 40909 ft 504 kts 106°
2026-05-07 17:10 54.66300 -11.43237 40920 ft 504 kts 106°
2026-05-07 17:10 54.64613 -11.31480 40905 ft 503 kts 106°
2026-05-07 17:11 54.62916 -11.19739 40913 ft 503 kts 106°
2026-05-07 17:11 54.61219 -11.08087 40926 ft 503 kts 106°
2026-05-07 17:12 54.59502 -10.96385 40909 ft 503 kts 107°
2026-05-07 17:12 54.57772 -10.84681 40915 ft 503 kts 107°
2026-05-07 17:13 54.56029 -10.72973 40920 ft 503 kts 107°
2026-05-07 17:13 54.54278 -10.61296 40909 ft 503 kts 107°
2026-05-07 17:14 54.52519 -10.49653 40913 ft 502 kts 107°
2026-05-07 17:14 54.50762 -10.38103 40914 ft 502 kts 107°
2026-05-07 17:15 54.48982 -10.26486 40915 ft 501 kts 107°
2026-05-07 17:15 54.47197 -10.14907 40911 ft 501 kts 107°
2026-05-07 17:16 54.45312 -10.03393 40915 ft 500 kts 109°
2026-05-07 17:16 54.43233 -9.92012 40918 ft 499 kts 110°
2026-05-07 17:17 54.41128 -9.80639 40915 ft 500 kts 110°
2026-05-07 17:17 54.39043 -9.69265 40916 ft 500 kts 110°
2026-05-07 17:18 54.36964 -9.57896 40892 ft 499 kts 110°
2026-05-07 17:18 54.34887 -9.46590 40907 ft 499 kts 110°
2026-05-07 17:19 54.32791 -9.35260 40903 ft 499 kts 110°
2026-05-07 17:19 54.30683 -9.23940 40910 ft 499 kts 110°
2026-05-07 17:20 54.28560 -9.12609 40908 ft 499 kts 110°
2026-05-07 17:20 54.26442 -9.01370 40909 ft 498 kts 110°
2026-05-07 17:21 54.24301 -8.90081 40909 ft 498 kts 110°
2026-05-07 17:21 54.22154 -8.78822 40912 ft 498 kts 110°
2026-05-07 17:22 54.19993 -8.67560 40912 ft 498 kts 110°
2026-05-07 17:22 54.17822 -8.56315 40903 ft 498 kts 110°
2026-05-07 17:23 54.15660 -8.45177 40906 ft 498 kts 110°
2026-05-07 17:23 54.13470 -8.33962 40914 ft 498 kts 110°
2026-05-07 17:24 54.11272 -8.22769 40912 ft 498 kts 111°
2026-05-07 17:24 54.09056 -8.11556 40901 ft 499 kts 111°
2026-05-07 17:25 54.06834 -8.00371 40907 ft 498 kts 111°
2026-05-07 17:25 54.04603 -7.89205 40898 ft 498 kts 111°
2026-05-07 17:26 54.02363 -7.78056 40907 ft 498 kts 111°
2026-05-07 17:26 54.00113 -7.66924 40903 ft 497 kts 111°
2026-05-07 17:27 53.97869 -7.55885 40907 ft 497 kts 111°
2026-05-07 17:27 53.95602 -7.44794 40902 ft 497 kts 111°
2026-05-07 17:28 53.93321 -7.33697 40898 ft 497 kts 111°
2026-05-07 17:28 53.91029 -7.22605 40914 ft 496 kts 111°
2026-05-07 17:29 53.88750 -7.11638 40915 ft 496 kts 111°
2026-05-07 17:29 53.86444 -7.00603 40915 ft 496 kts 111°
2026-05-07 17:30 53.84132 -6.89599 40922 ft 496 kts 112°
2026-05-07 17:30 53.81810 -6.78604 40902 ft 496 kts 112°
2026-05-07 17:31 53.79476 -6.67619 40918 ft 495 kts 112°
2026-05-07 17:31 53.77139 -6.56672 40922 ft 494 kts 112°
2026-05-07 17:32 53.74795 -6.45755 40922 ft 494 kts 112°
2026-05-07 17:32 53.72842 -6.36707 40931 ft 493 kts 112°
2026-05-07 17:33 53.70098 -6.24053 40923 ft 493 kts 112°
2026-05-07 17:33 53.67731 -6.13202 40932 ft 492 kts 112°
2026-05-07 17:34 53.65360 -6.02388 40943 ft 492 kts 112°
2026-05-07 17:34 53.62976 -5.91571 40946 ft 492 kts 112°
2026-05-07 17:35 53.60584 -5.80773 40956 ft 492 kts 113°
2026-05-07 17:35 53.58197 -5.70051 40950 ft 492 kts 112°
2026-05-07 17:36 53.55786 -5.59274 40959 ft 492 kts 113°
2026-05-07 17:36 53.53937 -5.48175 40963 ft 495 kts 102°
2026-05-07 17:37 53.53285 -5.36629 40958 ft 497 kts 93°
2026-05-07 17:37 53.53114 -5.25072 40961 ft 498 kts 93°
2026-05-07 17:38 53.52844 -5.13429 40965 ft 498 kts 94°
2026-05-07 17:38 53.52461 -5.01822 40967 ft 497 kts 95°
2026-05-07 17:39 53.52064 -4.90193 40971 ft 497 kts 95°
2026-05-07 17:39 53.51675 -4.78662 40973 ft 497 kts 95°
2026-05-07 17:40 53.51277 -4.67064 40972 ft 497 kts 95°
2026-05-07 17:40 53.50869 -4.55471 40968 ft 496 kts 95°
2026-05-07 17:41 53.50449 -4.43889 40975 ft 496 kts 95°
2026-05-07 17:41 53.50022 -4.32394 40978 ft 496 kts 95°
2026-05-07 17:42 53.49581 -4.20843 40981 ft 495 kts 95°
2026-05-07 17:42 53.49130 -4.09284 40976 ft 495 kts 95°
2026-05-07 17:43 53.48503 -3.97786 40987 ft 493 kts 102°
2026-05-07 17:43 53.46767 -3.86699 40988 ft 490 kts 111°
2026-05-07 17:44 53.44455 -3.75936 40990 ft 490 kts 111°
2026-05-07 17:44 53.42190 -3.65113 40989 ft 491 kts 111°
2026-05-07 17:45 53.39623 -3.54614 40989 ft 489 kts 118°
2026-05-07 17:45 53.36610 -3.44407 40992 ft 489 kts 118°
2026-05-07 17:46 53.33645 -3.34159 41000 ft 489 kts 117°
2026-05-07 17:46 53.30680 -3.23908 41012 ft 489 kts 118°
2026-05-07 17:47 53.27702 -3.13675 41016 ft 489 kts 118°
2026-05-07 17:47 53.24720 -3.03471 41013 ft 489 kts 118°
2026-05-07 17:48 53.21726 -2.93268 41024 ft 489 kts 118°
2026-05-07 17:48 53.18746 -2.83152 41020 ft 489 kts 118°
2026-05-07 17:49 53.15731 -2.72964 41003 ft 489 kts 118°
2026-05-07 17:49 53.12714 -2.62810 41011 ft 489 kts 118°
2026-05-07 17:50 53.10196 -2.54368 40999 ft 489 kts 118°
2026-05-07 17:50 53.07160 -2.44224 41011 ft 489 kts 118°
2026-05-07 17:51 53.04100 -2.34120 41002 ft 486 kts 122°
2026-05-07 17:51 53.02111 -2.29632 41019 ft 480 kts 138°
2026-05-07 17:51 52.99485 -2.26308 41018 ft 472 kts 152°
2026-05-07 17:52 52.93833 -2.20699 41018 ft 475 kts 150°
2026-05-07 17:52 52.91006 -2.17817 40763 ft 481 kts 150°
2026-05-07 17:52 52.88177 -2.14896 40031 ft 481 kts 150°
2026-05-07 17:53 52.85387 -2.11987 39378 ft 472 kts 150°
2026-05-07 17:53 52.82536 -2.09015 38693 ft 491 kts 150°
2026-05-07 17:53 52.79628 -2.05985 37910 ft 497 kts 150°
2026-05-07 17:53 52.76690 -2.02927 37085 ft 499 kts 150°
2026-05-07 17:54 52.73724 -1.99848 36377 ft 511 kts 150°
2026-05-07 17:54 52.70755 -1.96767 36235 ft 490 kts 150°
2026-05-07 17:54 52.67945 -1.93851 35647 ft 472 kts 150°
2026-05-07 17:54 52.65161 -1.90974 35305 ft 470 kts 150°
2026-05-07 17:55 52.59639 -1.85292 35246 ft 468 kts 150°
2026-05-07 17:55 52.54035 -1.79545 35204 ft 476 kts 150°
2026-05-07 17:56 52.51262 -1.76703 34833 ft 464 kts 150°
2026-05-07 17:56 52.48547 -1.73922 34480 ft 454 kts 150°
2026-05-07 17:56 52.45895 -1.71210 34143 ft 445 kts 150°
2026-05-07 17:56 52.43293 -1.68555 33767 ft 437 kts 150°
2026-05-07 17:57 52.40733 -1.65947 33371 ft 429 kts 150°
2026-05-07 17:57 52.39065 -1.64250 33107 ft 424 kts 150°
2026-05-07 17:57 52.35738 -1.60870 32542 ft 416 kts 150°
2026-05-07 17:57 52.33292 -1.58390 32110 ft 411 kts 150°
2026-05-07 17:58 52.30870 -1.55936 31721 ft 407 kts 150°
2026-05-07 17:58 52.28504 -1.53541 31310 ft 403 kts 151°
2026-05-07 17:58 52.26133 -1.51145 30891 ft 400 kts 151°
2026-05-07 17:58 52.23777 -1.48766 30481 ft 397 kts 151°
2026-05-07 17:59 52.21444 -1.46393 30092 ft 394 kts 149°
2026-05-07 17:59 52.19256 -1.43699 29621 ft 394 kts 143°
2026-05-07 17:59 52.17190 -1.40774 29172 ft 393 kts 141°
2026-05-07 17:59 52.15158 -1.37798 28732 ft 391 kts 141°
2026-05-07 18:00 52.10991 -1.31788 27823 ft 388 kts 142°
2026-05-07 18:00 52.08979 -1.28954 27401 ft 386 kts 142°
2026-05-07 18:00 52.06946 -1.26117 26980 ft 384 kts 142°
2026-05-07 18:01 52.04918 -1.23301 26563 ft 383 kts 142°
2026-05-07 18:01 52.02887 -1.20487 26135 ft 382 kts 142°
2026-05-07 18:01 52.00872 -1.17700 25724 ft 380 kts 142°
2026-05-07 18:02 51.95080 -1.09704 24591 ft 375 kts 142°
2026-05-07 18:02 51.93101 -1.06976 24205 ft 372 kts 142°
2026-05-07 18:03 51.87613 -0.99428 23046 ft 364 kts 142°
2026-05-07 18:03 51.85719 -0.96755 22599 ft 359 kts 137°
2026-05-07 18:03 51.84292 -0.93468 22143 ft 356 kts 118°
2026-05-07 18:04 51.83246 -0.89832 21747 ft 357 kts 117°
2026-05-07 18:04 51.82180 -0.86197 21334 ft 358 kts 118°
2026-05-07 18:04 51.81094 -0.82565 20929 ft 359 kts 118°
2026-05-07 18:04 51.79995 -0.78942 20515 ft 358 kts 118°
2026-05-07 18:05 51.78894 -0.75338 20120 ft 356 kts 118°
2026-05-07 18:05 51.77810 -0.71810 19731 ft 353 kts 118°
2026-05-07 18:05 51.76721 -0.68272 19339 ft 351 kts 118°
2026-05-07 18:05 51.75636 -0.64750 18958 ft 349 kts 118°
2026-05-07 18:06 51.74554 -0.61241 18571 ft 347 kts 118°
2026-05-07 18:06 51.73480 -0.57766 18172 ft 345 kts 118°
2026-05-07 18:06 51.72398 -0.54328 17725 ft 338 kts 122°
2026-05-07 18:06 51.70914 -0.51483 17295 ft 330 kts 145°
2026-05-07 18:07 51.68919 -0.49796 16897 ft 323 kts 166°
2026-05-07 18:07 51.66723 -0.49318 16457 ft 317 kts 184°
2026-05-07 18:07 51.64583 -0.50003 16060 ft 313 kts 202°
2026-05-07 18:07 51.62733 -0.51742 15633 ft 304 kts 221°
2026-05-07 18:08 51.61391 -0.54310 15220 ft 301 kts 239°
2026-05-07 18:08 51.60644 -0.57437 14841 ft 302 kts 257°
2026-05-07 18:08 51.60464 -0.60804 14447 ft 302 kts 270°
2026-05-07 18:08 51.60860 -0.64105 14047 ft 302 kts 291°
2026-05-07 18:09 51.61796 -0.67098 13652 ft 299 kts 295°
2026-05-07 18:09 51.62739 -0.70085 13231 ft 298 kts 294°
2026-05-07 18:09 51.63655 -0.73077 12809 ft 298 kts 294°
2026-05-07 18:09 51.64563 -0.76077 12393 ft 298 kts 294°
2026-05-07 18:10 51.65501 -0.79034 11961 ft 293 kts 301°
2026-05-07 18:10 51.66921 -0.81403 11519 ft 298 kts 323°
2026-05-07 18:10 51.68786 -0.82883 11083 ft 302 kts 341°
2026-05-07 18:10 51.70863 -0.83458 10648 ft 305 kts 358°
2026-05-07 18:11 51.72945 -0.83021 10201 ft 307 kts 17°
2026-05-07 18:11 51.74850 -0.81480 9757 ft 308 kts 38°
2026-05-07 18:11 51.76303 -0.78961 9292 ft 308 kts 58°
2026-05-07 18:11 51.77125 -0.75805 8813 ft 306 kts 78°
2026-05-07 18:12 51.77318 -0.72401 8360 ft 304 kts 93°
2026-05-07 18:12 51.76946 -0.69091 8050 ft 294 kts 113°
2026-05-07 18:12 51.76079 -0.66278 8048 ft 272 kts 118°
2026-05-07 18:12 51.75236 -0.63584 8032 ft 267 kts 117°
2026-05-07 18:13 51.74415 -0.60893 8037 ft 267 kts 117°
2026-05-07 18:13 51.73595 -0.58197 8050 ft 268 kts 117°
2026-05-07 18:13 51.72686 -0.55621 8054 ft 261 kts 132°
2026-05-07 18:13 51.71226 -0.53886 7995 ft 266 kts 159°
2026-05-07 18:14 51.69398 -0.53427 7694 ft 269 kts 186°
2026-05-07 18:14 51.67669 -0.54348 7395 ft 263 kts 209°
2026-05-07 18:14 51.66135 -0.55943 7151 ft 260 kts 214°
2026-05-07 18:14 51.64685 -0.57599 7086 ft 250 kts 215°
2026-05-07 18:15 51.63298 -0.59202 7035 ft 241 kts 215°
2026-05-07 18:15 51.62009 -0.60879 7039 ft 236 kts 230°
2026-05-07 18:15 51.61201 -0.63187 7054 ft 241 kts 246°
2026-05-07 18:15 51.60522 -0.65691 7062 ft 246 kts 245°
2026-05-07 18:16 51.59839 -0.68189 7045 ft 242 kts 245°
2026-05-07 18:16 51.59165 -0.70648 7031 ft 238 kts 245°
2026-05-07 18:16 51.58505 -0.73053 7047 ft 239 kts 246°
2026-05-07 18:16 51.57830 -0.75510 7030 ft 241 kts 245°
2026-05-07 18:17 51.57141 -0.78006 6779 ft 248 kts 245°
2026-05-07 18:17 51.56436 -0.80555 6388 ft 247 kts 246°
2026-05-07 18:17 51.55746 -0.83033 5980 ft 239 kts 245°
2026-05-07 18:17 51.55080 -0.85428 5552 ft 231 kts 245°
2026-05-07 18:18 51.54360 -0.87685 5168 ft 222 kts 230°
2026-05-07 18:18 51.53159 -0.89083 4803 ft 211 kts 195°
2026-05-07 18:18 51.51753 -0.89327 4467 ft 199 kts 173°
2026-05-07 18:18 51.50500 -0.88625 4085 ft 191 kts 138°
2026-05-07 18:19 51.49706 -0.86903 4024 ft 195 kts 115°
2026-05-07 18:19 51.49266 -0.84811 3987 ft 195 kts 104°
2026-05-07 18:19 51.48932 -0.82750 3981 ft 188 kts 105°
2026-05-07 18:19 51.48597 -0.80769 4022 ft 185 kts 105°
2026-05-07 18:20 51.48245 -0.78761 3835 ft 188 kts 106°
2026-05-07 18:20 51.47887 -0.76765 3574 ft 185 kts 106°
2026-05-07 18:20 51.47682 -0.74761 3339 ft 182 kts 93°
2026-05-07 18:20 51.47661 -0.72720 3094 ft 181 kts 90°
2026-05-07 18:21 51.47667 -0.70772 2838 ft 168 kts 91°
2026-05-07 18:21 51.47675 -0.68917 2628 ft 166 kts 91°
2026-05-07 18:21 51.47681 -0.67064 2403 ft 165 kts 91°
2026-05-07 18:21 51.47689 -0.65229 2195 ft 165 kts 91°
2026-05-07 18:22 51.47695 -0.63379 1949 ft 165 kts 92°
2026-05-07 18:22 51.47700 -0.62158 1814 ft 164 kts 92°
2026-05-07 18:22 51.47708 -0.59726 1531 ft 162 kts 92°
2026-05-07 18:22 51.47715 -0.57956 1273 ft 151 kts 92°
2026-05-07 18:23 51.47722 -0.56352 1097 ft 137 kts 93°
2026-05-07 18:23 51.47726 -0.54877 902 ft 131 kts 92°
2026-05-07 18:23 51.47731 -0.53441 733 ft 126 kts 93°
2026-05-07 18:23 51.47736 -0.52038 559 ft 126 kts 91°
2026-05-07 18:24 51.47744 -0.50645 364 ft 124 kts 92°
2026-05-07 18:24 51.47746 -0.49266 214 ft 124 kts 91°
2026-05-07 18:24 51.47756 -0.47892 102 ft 121 kts 92°
2026-05-07 18:24 51.47757 -0.46704 97 ft 87 kts 89°
2026-05-07 18:25 51.47760 -0.45982 92 ft 43 kts 90°
2026-05-07 18:25 51.47760 -0.45589 92 ft 21 kts 95°
2026-05-07 18:25 51.47685 -0.45473 93 ft 13 kts 172°
2026-05-07 18:25 51.47661 -0.45469 92 ft 0 kts 176°
2026-05-07 18:26 51.47654 -0.45469 90 ft 5 kts 176°
2026-05-07 18:26 51.47589 -0.45463 90 ft 11 kts 178°
2026-05-07 18:26 51.47521 -0.45502 94 ft 11 kts 230°
2026-05-07 18:27 51.47510 -0.45619 94 ft 11 kts 270°
2026-05-07 18:27 51.47513 -0.45739 94 ft 11 kts 276°
2026-05-07 18:27 51.47518 -0.45859 91 ft 11 kts 271°
2026-05-07 18:27 51.47518 -0.45940 91 ft 11 kts 270°
2026-05-07 18:28 51.47517 -0.46103 91 ft 11 kts 269°
2026-05-07 18:28 51.47516 -0.46225 90 ft 11 kts 269°
2026-05-07 18:28 51.47515 -0.46348 90 ft 11 kts 269°
2026-05-07 18:28 51.47514 -0.46472 92 ft 11 kts 269°
2026-05-07 18:29 51.47513 -0.46597 94 ft 11 kts 269°
2026-05-07 18:29 51.47505 -0.46721 95 ft 11 kts 253°
2026-05-07 18:29 51.47495 -0.46843 95 ft 11 kts 268°
2026-05-07 18:29 51.47494 -0.46968 92 ft 11 kts 269°
2026-05-07 18:30 51.47493 -0.47094 93 ft 11 kts 269°
2026-05-07 18:30 51.47492 -0.47219 91 ft 11 kts 269°
2026-05-07 18:30 51.47491 -0.47344 91 ft 11 kts 269°
2026-05-07 18:30 51.47491 -0.47469 91 ft 11 kts 269°
2026-05-07 18:31 51.47490 -0.47595 91 ft 11 kts 269°
2026-05-07 18:31 51.47489 -0.47757 93 ft 19 kts 270°
2026-05-07 18:31 51.47489 -0.47941 93 ft 15 kts 270°
2026-05-07 18:31 51.47489 -0.48108 94 ft 15 kts 270°
2026-05-07 18:32 51.47489 -0.48253 93 ft 10 kts 269°
2026-05-07 18:32 51.47470 -0.48350 94 ft 10 kts 216°
2026-05-07 18:32 51.47405 -0.48356 95 ft 9 kts 164°
2026-05-07 18:32 51.47382 -0.48265 93 ft 9 kts 91°
2026-05-07 18:33 51.47382 -0.48229 91 ft 2 kts 90°
2026-05-07 18:33 51.47382 -0.48216 94 ft 0 kts 90°